TimeCDT,TemperatureF,Dew PointF,Humidity,Sea Level PressureIn,VisibilityMPH,Wind Direction,Wind SpeedMPH,Gust SpeedMPH,PrecipitationIn,Events,Conditions,WindDirDegrees,DateUTC
12:59 AM,68.2,66.7,95,30.12,10.0,Calm,Calm,-,N/A,,Clear,0,2013-07-15 05:59:00
2:56 AM,69.8,68.0,94,30.14,10.0,East,4.6,-,N/A,,Clear,80,2013-07-15 07:56:00
3:56 AM,69.8,68.0,94,30.14,10.0,East,4.6,-,N/A,,Clear,90,2013-07-15 08:56:00
4:58 AM,68.4,68.0,99,30.13,10.0,ESE,5.8,-,N/A,,Clear,110,2013-07-15 09:58:00
5:58 AM,68.0,68.0,100,30.14,10.0,East,4.6,-,N/A,,Clear,100,2013-07-15 10:58:00
6:58 AM,69.3,69.1,99,30.16,10.0,ESE,6.9,-,N/A,,Clear,120,2013-07-15 11:58:00
7:28 AM,71.6,69.8,94,30.19,10.0,SSE,6.9,-,N/A,,Mostly Cloudy,150,2013-07-15 12:28:00
7:58 AM,70.7,69.4,96,30.18,10.0,SE,5.8,-,N/A,,Scattered Clouds,140,2013-07-15 12:58:00
8:18 AM,73.4,69.8,88,30.20,10.0,ESE,6.9,-,N/A,,Mostly Cloudy,120,2013-07-15 13:18:00
8:38 AM,73.4,69.8,88,30.21,10.0,ESE,8.1,-,N/A,,Overcast,120,2013-07-15 13:38:00
8:43 AM,73.4,69.8,88,30.21,10.0,SE,6.9,-,N/A,,Overcast,130,2013-07-15 13:43:00
8:48 AM,73.4,69.8,88,30.21,10.0,SE,8.1,-,N/A,,Overcast,140,2013-07-15 13:48:00
8:58 AM,74.1,70.7,89,30.19,10.0,SE,8.1,-,N/A,,Overcast,140,2013-07-15 13:58:00
9:03 AM,73.4,71.6,94,30.21,10.0,SE,10.4,-,N/A,,Overcast,130,2013-07-15 14:03:00
9:38 AM,77.0,71.6,83,30.22,10.0,SSE,11.5,-,N/A,,Overcast,160,2013-07-15 14:38:00
9:58 AM,77.0,69.8,78,30.20,10.0,SSE,11.5,-,N/A,,Overcast,160,2013-07-15 14:58:00
10:08 AM,77.0,71.6,83,30.22,10.0,SE,13.8,-,N/A,,Mostly Cloudy,140,2013-07-15 15:08:00
10:38 AM,78.8,71.6,78,30.22,10.0,South,8.1,-,N/A,,Mostly Cloudy,170,2013-07-15 15:38:00
10:58 AM,80.4,71.4,74,30.20,10.0,SE,9.2,-,N/A,,Mostly Cloudy,140,2013-07-15 15:58:00
11:08 AM,80.6,69.8,70,30.22,10.0,South,10.4,18.4,N/A,,Scattered Clouds,170,2013-07-15 16:08:00
11:53 AM,82.4,71.6,70,30.21,10.0,Variable,3.5,-,N/A,,Overcast,0,2013-07-15 16:53:00
11:58 AM,81.9,70.9,69,30.19,10.0,Variable,5.8,-,N/A,,Mostly Cloudy,0,2013-07-15 16:58:00
12:08 PM,82.4,71.6,70,30.21,10.0,Variable,5.8,-,N/A,,Mostly Cloudy,0,2013-07-15 17:08:00
12:18 PM,82.4,69.8,66,30.21,10.0,SSE,4.6,-,N/A,,Mostly Cloudy,150,2013-07-15 17:18:00
12:58 PM,85.5,69.6,59,30.18,10.0,ESE,8.1,-,N/A,,Scattered Clouds,120,2013-07-15 17:58:00
2:24 PM,84.2,71.6,66,30.19,10.0,SE,10.4,-,N/A,,Light Drizzle,140,2013-07-15 19:24:00
2:39 PM,82.4,71.6,70,30.19,10.0,SE,11.5,-,N/A,,Scattered Clouds,140,2013-07-15 19:39:00
2:56 PM,82.4,71.6,70,30.19,10.0,SE,10.4,-,N/A,,Mostly Cloudy,130,2013-07-15 19:56:00
3:58 PM,80.2,70.9,73,30.16,10.0,ESE,10.4,-,N/A,,Mostly Cloudy,110,2013-07-15 20:58:00
4:58 PM,83.5,72.5,69,30.15,10.0,ESE,6.9,-,N/A,,Clear,110,2013-07-15 21:58:00
5:58 PM,85.6,70.7,61,30.13,10.0,ESE,11.5,-,N/A,,Clear,110,2013-07-15 22:58:00
6:58 PM,84.0,70.9,64,30.15,10.0,East,10.4,-,N/A,,Clear,100,2013-07-15 23:58:00
7:58 PM,81.9,71.4,70,30.15,10.0,ESE,6.9,-,N/A,,Clear,120,2013-07-16 00:58:00
8:58 PM,79.2,73.0,81,30.17,10.0,East,6.9,-,N/A,,Mostly Cloudy,90,2013-07-16 01:58:00
8:59 PM,78.8,73.4,83,30.20,10.0,East,8.1,-,N/A,Thunderstorm,Thunderstorm,90,2013-07-16 01:59:00
9:00 PM,78.8,73.4,83,30.20,10.0,East,9.2,-,N/A,Rain-Thunderstorm,Light Thunderstorms and Rain,90,2013-07-16 02:00:00
9:05 PM,78.8,75.2,89,30.21,2.5,SE,19.6,28.8,N/A,Rain-Thunderstorm,Light Thunderstorms and Rain,130,2013-07-16 02:05:00
9:10 PM,77.0,73.4,89,30.21,0.8,South,6.9,28.8,N/A,Rain-Thunderstorm,Heavy Thunderstorms and Rain,180,2013-07-16 02:10:00
9:20 PM,73.4,73.4,100,30.22,1.0,South,5.8,-,N/A,Rain-Thunderstorm,Heavy Thunderstorms and Rain,190,2013-07-16 02:20:00
9:25 PM,73.4,73.4,100,30.22,1.0,SSW,6.9,-,N/A,Rain-Thunderstorm,Light Thunderstorms and Rain,200,2013-07-16 02:25:00
9:30 PM,71.6,71.6,100,30.22,2.5,Variable,4.6,-,N/A,Rain-Thunderstorm,Light Thunderstorms and Rain,0,2013-07-16 02:30:00
9:35 PM,73.4,73.4,100,30.23,5.0,SSW,3.5,-,N/A,Rain-Thunderstorm,Light Thunderstorms and Rain,200,2013-07-16 02:35:00
9:49 PM,73.4,73.4,100,30.23,10.0,Calm,Calm,-,N/A,Thunderstorm,Thunderstorm,0,2013-07-16 02:49:00
9:56 PM,73.4,73.4,100,30.23,10.0,Calm,Calm,-,N/A,,Overcast,0,2013-07-16 02:56:00
9:57 PM,73.4,73.4,100,30.23,10.0,Calm,Calm,-,N/A,,Light Drizzle,0,2013-07-16 02:57:00
9:58 PM,73.4,73.4,100,30.21,10.0,Calm,Calm,-,0.66,,Light Drizzle,0,2013-07-16 02:58:00
10:08 PM,73.4,73.4,100,30.23,10.0,Calm,Calm,-,N/A,,Overcast,0,2013-07-16 03:08:00
10:58 PM,73.9,73.9,100,30.21,10.0,ESE,4.6,-,0.00,,Mostly Cloudy,110,2013-07-16 03:58:00
11:58 PM,73.9,73.9,100,30.21,10.0,ESE,5.8,-,N/A,,Mostly Cloudy,110,2013-07-16 04:58:00